Back to catalog

STARLINK-33794

AliveCommunicationsVLEO
NORAD 63820·PAYLOAD·🇺🇸 United States

Launched May 4, 2025 from Cape Canaveral Space Force Station

Loading…

Next Passes (next 24 hours)

TLE

FreshSource: CelesTrak SupGP

Epoch: Sep 14, 2026, 15:14 UTC

1 63820C 25092S   26257.63520833  .00020777  00000+0  75287-3 0  2570
2 63820  43.0028 185.6672 0001601 274.5595 287.4219 15.27552741    11

Track STARLINK-33794 in real time with AllMySat

Download on the App Store